Back to catalog

INTELSAT 16

AliveCommunicationsGEO
NORAD 36397·PAYLOAD· XX

Launched Feb 12, 2010 from Baikonur Cosmodrome

Loading…

TLE

FreshSource: CelesTrak SupGP

Epoch: Sep 14, 2026, 00:00 UTC

1 36397C 10006A   26257.00000000 -.00000199  00000+0  00000+0 0  2572
2 36397   0.0368 277.8051 0001390 278.2187  92.9091  1.01451498    19

Track INTELSAT 16 in real time with AllMySat

Download on the App Store